Location: Village de las Huertas
(35.3014°N, 106.4095°W)
Time: 08:53:07
(UTC+00:00)

Cosmos 1697 Rocket - Pass Details

Date: 29 October 2020
Orbit: 831 x 845 km, 71.0° (Epoch: 05 December)

Event Time Altitude Azimuth Distance (km) Brightness Sun altitude
Exits shadow 12:31:40 - 312° (NW) 2,515 4.7 -11.4°
Reaches altitude 10° 12:31:51 10° 311° (NW) 2,465 4.6 -11.4°
Maximum altitude 12:36:18 24° 259° (WSW) 1,661 3.7 -10.5°
Drops below altitude 10° 12:40:45 10° 206° (SSW) 2,456 5.0 -9.6°
Sets 12:43:36 0° 193° (SSW) 3,387 5.8 -9.0°
